Location: Ermatingen
(47.6706°N, 9.0857°E)
Time: 08:42:49
(UTC+00:00)

Terra - Pass Details

Date: 18 September 2020
Orbit: 701 x 703 km, 98.2° (Epoch: 28 October)

Event Time Altitude Azimuth Distance (km) Brightness Sun altitude
Exits shadow 20:19:12 22° 31° (NNE) 1,526 3.6 -27.4°
Drops below altitude 10° 20:21:30 10° 7° (N) 2,183 4.7 -27.8°
Sets 20:24:02 0° 356° (N) 3,106 5.7 -28.1°
